Flight Briefing for CMB820

Departure Arrival
Joint Base McGuire Dix Lakehurst (KWRI)
Click to view FAA NOTAMS
Patrick Air Force Base (KCOF)
Click to view FAA NOTAMS
Departure Time Arrival Time
N/A N/A
Aircraft Distance
B757-200SF 768nm
Departure METAR Arrival METAR
KWRI 230656Z AUTO 22006KT 10SM OVC150 13/08 A3018 RMK AO2 SLP219 T01340082 $ KCOF 230656Z AUTO 10013KT 10SM CLR 25/20 A3013 RMK AO2 SLP207 T02540200 $
Suggested Route
CYN226011 ACY V229 LEEAH V1 ISO J121 MILIE J103 OMN BITHO7


View recent IFR Routes data
Notes
USTRANSCOM CONTRACT FLIGHT

Charts and Procedures

Charts for KWRI
No chart available
Charts for KCOF
No chart available

Windy.com Weather Map